Location: Augustenthal
(51.7167°N, 10.2833°E)
Time: 09:08:38
(UTC+00:00)

Cosmos 2297 Rocket - Pass Details

Date: 18 May 2021
Orbit: 838 x 845 km, 71.0° (Epoch: 15 June)

Event Time Altitude Azimuth Distance (km) Brightness Sun altitude
Rises 22:56:30 0° 330° (NNW) 3,416 6.5 -18.4°
Reaches altitude 10° 22:58:59 10° 333° (NNW) 2,477 5.7 -18.4°
Maximum altitude 23:04:39 65° 56° (NE) 927 2.5 -18.5°
Enters shadow 23:08:28 21° 134° (SE) 1,806 3.5 -18.5°
